Home > Weather > Lafayette > Past weeks

Flag for USA Past Weather in Lafayette, Indiana, USA — Yesterday and Last 2 Weeks

Now
79 °F

Sunny.


Feels Like: 80 °F
Forecast: 67 / 80 °F
Wind: 8 mph from Southwest

Location: Purdue University Airport

Current Time: May 25, 2016 at 8:40:21 PM

Latest Report: May 25, 2016 at 7:54 PM


Visibility: 10 mi

Pressure: 29.92 "Hg

Humidity: 47%

Dew Point: 57 °F

Location of LafayetteLocation

Past Weather in Lafayette — Graph

°F

Lafayette Temperature Yesterday

Maximum temperature yesterday: 84 °F (at 4:54 PM)
Minimum temperature yesterday: 52 °F (at 4:54 AM)
Average temperature yesterday: 70 °F

High & Low Weather Summary for the Past Weeks

 TemperatureHumidityPressure
High84 °F (May 24, 4:54 PM)100% (May 11, 5:54 AM)30.23 "Hg (May 11, 5:54 AM)
Low34 °F (May 15, 6:54 AM)23% (May 23, 3:54 PM)29.78 "Hg (May 14, 12:54 AM)
Average59 °F65%30.06 "Hg
* Reported May 10 6:54 PM — May 25 6:54 PM, Lafayette, Weather by CustomWeather, © 2016

Note: Actual official high and low records may vary slightly from our data, if they occured in-between our weather recording intervals... More about our weather records

Advertising

Lafayette Weather History for the Previous 24 Hours

Scroll right to see more
 ConditionsComfort  
Time TempWeatherWind HumidityBarometerVisibility
6:54 PM
Wed, May 25
81 °FSunny.10 mph53%29.91 "Hg10 mi
5:54 PM83 °FScattered clouds.16 mph51%29.93 "Hg10 mi
4:54 PM82 °FPassing clouds.13 mph49%29.95 "Hg10 mi
3:54 PM83 °FScattered clouds.13 mph50%29.97 "Hg10 mi
2:54 PM83 °FScattered clouds.12 mph46%29.98 "Hg10 mi
1:54 PM82 °FSunny.6 mph48%30.00 "Hg10 mi
12:54 PM79 °FSunny.8 mph52%30.01 "Hg10 mi
11:54 AM78 °FSunny.10 mph54%30.01 "Hg10 mi
10:54 AM75 °FSunny.8 mph60%30.03 "Hg10 mi
9:54 AM73 °FSunny.9 mph64%30.06 "Hg10 mi
8:54 AM70 °FSunny.5 mph68%30.05 "Hg10 mi
7:54 AM66 °FSunny.6 mph73%30.03 "Hg10 mi
6:54 AM63 °FClear.3 mph78%30.01 "Hg10 mi
5:54 AM62 °FClear.No wind80%30.00 "Hg10 mi
4:54 AM64 °FClear.3 mph75%30.01 "Hg10 mi
3:54 AM65 °FPassing clouds.No wind70%30.01 "Hg10 mi
2:54 AM62 °FClear.No wind80%30.02 "Hg10 mi
1:54 AM64 °FClear.No wind75%30.01 "Hg10 mi
12:54 AM68 °FClear.3 mph61%30.01 "Hg10 mi
11:54 PM
Tue, May 24
67 °FClear.No wind66%30.01 "Hg10 mi
10:54 PM71 °FClear.No wind55%30.02 "Hg10 mi
9:54 PM73 °FSunny.No wind50%30.00 "Hg10 mi
8:54 PM77 °FSunny.9 mph42%29.98 "Hg10 mi
Weather by CustomWeather, © 2016

See weather overviewHow to use our weather pages